Regional Weather Roundup
Issued by NWS

Home | Current Version | Previous Version | Text Only | Print | Product List | Glossary On
Versions: 1 2 3 4 5 6 7 8 9 10 11 12 13 14 15 16 17 18 19 20 21 22 23 24 25 26 27 28 29 30 31 32 33 34 35 36 37 38 39 40 41 42 43 44 45 46 47 48 49 50
000
ASUS43 KMKX 290221
RWRWI

WISCONSIN REGIONAL WEATHER ROUNDUP
NATIONAL WEATHER SERVICE MILWAUKEE/SULLIVAN WI
900 PM CDT THU APR 28 2016

NOTE: "FAIR" INDICATES FEW OR NO CLOUDS BELOW 12,000 FEET WITH NO
SIGNIFICANT WEATHER AND/OR OBSTRUCTIONS TO VISIBILITY.

WIZ001-002-006>008-014>016-023>028-290300-
NORTHWEST WISCONSIN

CITY           SKY/WX    TMP DP  RH WIND       PRES   REMARKS
SUPERIOR ARPT  MOCLDY    37  31  79 NE8       30.15R WCI  30
ASHLAND        PTCLDY    33  28  81 NE5       30.13S WCI  29
HAYWARD        CLOUDY    41  25  53 N8        30.09R
SIREN          CLOUDY    44  25  47 E3        30.10R
CUMBERLAND     CLOUDY    41  36  81 S5        30.09R
RICE LAKE      CLOUDY    42  35  77 S8        30.11R
CHETEK         CLOUDY    41  36  84 CALM      30.10R
LADYSMITH      MOCLDY    44  35  70 W6        30.09R
EAU CLAIRE     CLOUDY    39  37  92 N8        30.09R WCI  33
MENOMONIE      CLOUDY    39  39  99 NE3       30.11R
NEW RICHMOND   DRIZZLE   39  38  96 CALM      30.11R
OSCEOLA        LGT RAIN  41  41 100 CALM      30.14R
$$

WIZ003>005-009-010-017-018-290300-
NORTH CENTRAL WISCONSIN

CITY           SKY/WX    TMP DP  RH WIND       PRES   REMARKS
MANITOWISH WTR PTCLDY    43  29  56 N5        30.06R
ARBOR VITAE    PTCLDY    49  28  42 E5        30.06R
WOODRUFF       PTCLDY    49  28  42 E5        30.06R
RHINELANDER    CLOUDY    47  22  37 S5        30.05R
EAGLE RIVER    CLOUDY    47  25  42 NE6       30.05R
LAND O LAKES   CLOUDY    44  26  48 NE7       30.07R
PHILLIPS       CLOUDY    46  30  54 N7        30.05R
TOMAHAWK       CLOUDY    43  31  62 CALM      30.06R
MEDFORD        DRIZZLE   39  37  92 SE9       30.06R WCI  32
MERRILL        CLOUDY    43  34  70 S6        30.08R
$$

WIZ029-030-035-036-043>047-290300-
CENTRAL WISCONSIN

CITY           SKY/WX    TMP DP  RH WIND       PRES   REMARKS
WAUSAU         CLOUDY    39  35  86 E5        30.07R
MOSINEE        CLOUDY    37  36  93 E8        30.09R WCI  31
MARSHFIELD     LGT RAIN  40  36  86 E7        30.07R FOG
STEVENS POINT  LGT RAIN  35  33  92 NE10      30.09R WCI  27
WAUPACA        CLOUDY    42  33  72 N8        30.08R
WAUTOMA        LGT RAIN  42  34  73 E6        30.07R
WISC RAPIDS    CLOUDY    39  32  76 NE12      30.09R WCI  32
CAMP DOUGLAS   NOT AVBL
$$

WIZ011>013-019>022-031-037>040-048>050-290300-
NORTHEAST WISCONSIN

CITY           SKY/WX    TMP DP  RH WIND       PRES   REMARKS
ANTIGO         DRIZZLE   38  33  80 E9        30.08R WCI  32
SHAWANO        CLOUDY    40  36  85 N10       30.09S WCI  34
OCONTO         CLOUDY    42  33  69 CALM      30.08R
STURGEON BAY   CLOUDY    43  28  56 NE7       30.09S
GREEN BAY      CLOUDY    43  34  70 N6        30.06S
MANITOWOC      CLOUDY    41  35  79 N8G17     30.05F
APPLETON       CLOUDY    43  28  56 NE6       30.05R
CLINTONVILLE   CLOUDY    39  32  75 N9        30.08R WCI  33
OSHKOSH        CLOUDY    42  33  70 NE7       30.05R
$$

WIZ032>034-041-042-053>061-290300-
SOUTHWEST WISCONSIN

CITY           SKY/WX    TMP DP  RH WIND       PRES   REMARKS
LA CROSSE      CLOUDY    42  37  82 E9        30.07R
SPARTA         CLOUDY    39  38  97 NE3       30.07S
VIROQUA        CLOUDY    39  38  97 NE7       30.05R WCI  34
BOSCOBEL       LGT RAIN  42  40  92 E5        30.05R FOG
PRAIRIE DU CHI DRIZZLE   42  38  88 CALM      30.05R
PLATTEVILLE    CLOUDY    41  40  97 NE9       30.02R
$$

WIZ056-057-062-063-064-067-068-290300-
SOUTH CENTRAL WISCONSIN

CITY           SKY/WX    TMP DP  RH WIND       PRES   REMARKS
REEDSBURG      LGT RAIN  39  38  97 CALM      30.06R
BARABOO/DELLS  DRIZZLE   39  38  94 CALM      30.05R
LONE ROCK      CLOUDY    41  38  89 NE6       30.06R
MINERAL POINT  LGT RAIN  41  41 100 NE5       30.02R
MADISON        CLOUDY    40  37  89 E8        30.04R WCI  34
MIDDLETON      CLOUDY    41  39  93 NE7       30.04R
WATERTOWN      CLOUDY    39  38  97 NE5       30.04R
MONROE         CLOUDY    39  37  93 NE10      30.01R FOG     WCI  32
JANESVILLE     CLOUDY    43  41  93 E7        30.02R FOG
$$

WIZ051-052-058>065-066-070>072-290300-
SOUTHEAST WISCONSIN

CITY           SKY/WX    TMP DP  RH WIND       PRES   REMARKS
MILWAUKEE      CLOUDY    41  37  86 NE8       30.03R
WAUKESHA       CLOUDY    37  36  93 NE8       30.03R WCI  31
MILWAUKEE/TIMM CLOUDY    39  36  87 NE7       30.03R WCI  34
RACINE         CLOUDY    41  37  86 NE10      30.03S
BURLINGTON     CLOUDY    38  38  98 NE6       30.02R FOG     WCI  34
KENOSHA        CLOUDY    41  38  89 NE7       30.02R
FOND DU LAC    CLOUDY    41  38  89 E6        30.05R
SHEBOYGAN      CLOUDY    41  35  79 N5        30.04R
WEST BEND      CLOUDY    39  36  87 E6        30.03R WCI  35
JUNEAU         CLOUDY    38  36  92 NE5       30.05R WCI  35
$$

LSZ147-162-290300-
LAKE SUPERIOR

STATION/POSITION TIME  TEMP    WIND        PRES    WAVE
                       AIR SEA DIR/SP/G            HT/PER
                 (UTC) (F)     (DEG/KT/KT) (MB)    (FT/S)
W MID LAKE BUOY  0050   37 36   70/ 12/ 14 1020.9R   3/ 5
DEVILS ISLAND    0200   37      20/  8/  9 1021.6R
SAXON HARBOR     0100   39      20/  6/  8 1019.6R
$$

LMZ867-665-643>646-290300-
LAKE MICHIGAN

STATION/POSITION TIME  TEMP    WIND        PRES    WAVE
                       AIR SEA DIR/SP/G            HT/PER
                 (UTC) (F)     (DEG/KT/KT) (MB)    (FT/S)
CHAMBERS ISLAND  0100   42      40/  4/  6 1018.6R
N MID LAKE BUOY  0050   40 38   60/ 12/ 12 1017.8F   1/ 3
NORTHPORT PIER   0100   42      70/  6/  9 1018.3R
ALGOMA LAKESHORE 0115           60/ 11/ 15   N/A
KEWAUNEE LAKESHO 0100   41                 1016.8S
SHEBOYGAN LAKESH 0200   41      20/ 15/ 17 1018.2R
PORT WASHINGTON  0140   44      90/  9/ 13 1017.9R
S MID LAKE BUOY  0050   40 40   70/ 14/ 16 1015.2R   2/ 4
KENOSHA   LAKESH 0200   41      30/ 11/ 14 1016.6R
$$

TC  - TEMPERATURE IN CELSIUS
VSB - VISIBILITY IN STATUTE MILES
WCI - WIND CHILL INDEX
HX  - HEAT INDEX





USA.gov is the U.S. government's official web portal to all federal, state and local government web resources and services.